| time (UTC) | temp C | wind direction | speed KPH | gust KPH | rain 1hr cm | rain 24hr cm | rain mn cm | humidity % | barometer mb |
| 20260508153655 | 15 | 221 | 0.0 | 6.4 | 0.00 | 0.00 | 0.00 | 35 | 1020.6 |
| 20260508153128 | 15 | 245 | 0.0 | 1.6 | 0.00 | 0.00 | 0.00 | 35 | 1020.6 |
| 20260508152611 | 15 | 248 | 0.0 | 14.5 | 0.00 | 0.00 | 0.00 | 34 | 1020.6 |
| 20260508152110 | 15 | 213 | 0.0 | 14.5 | 0.00 | 0.00 | 0.00 | 34 | 1020.6 |
| 20260508151850 | 15 | 200 | 0.0 | 8.0 | 0.00 | 0.00 | 0.00 | 35 | 1020.6 |
| 20260508151613 | 15 | 189 | 0.0 | 8.0 | 0.00 | 0.00 | 0.00 | 35 | 1020.6 |
| 20260508150607 | 15 | 226 | 0.0 | 11.3 | 0.00 | 0.00 | 0.00 | 35 | 1020.7 |
| 20260508150042 | 14 | 228 | 1.6 | 11.3 | 0.00 | 0.00 | 0.00 | 34 | 1020.7 |
| 20260508145742 | 14 | 213 | 1.6 | 16.1 | 0.00 | 0.00 | 0.00 | 35 | 1020.7 |
| 20260508145009 | 14 | 213 | 1.6 | 16.1 | 0.00 | 0.00 | 0.00 | 35 | 1020.7 |
| 20260508144714 | 13 | 216 | 0.0 | 16.1 | 0.00 | 0.00 | 0.00 | 37 | 1020.8 |
| 20260508144152 | 13 | 235 | 3.2 | 16.1 | 0.00 | 0.00 | 0.00 | 37 | 1020.9 |
| 20260508143917 | 13 | 190 | 1.6 | 16.1 | 0.00 | 0.00 | 0.00 | 37 | 1020.8 |
| 20260508142848 | 13 | 194 | 3.2 | 16.1 | 0.00 | 0.00 | 0.00 | 36 | 1020.9 |
| 20260508142346 | 13 | 197 | 3.2 | 20.9 | 0.00 | 0.00 | 0.00 | 36 | 1020.9 |
| 20260508141829 | 13 | 213 | 1.6 | 20.9 | 0.00 | 0.00 | 0.00 | 37 | 1021.0 |
| 20260508141332 | 13 | 232 | 0.0 | 9.7 | 0.00 | 0.00 | 0.00 | 38 | 1020.9 |
| 20260508140804 | 12 | 182 | 0.0 | 1.6 | 0.00 | 0.00 | 0.00 | 40 | 1021.0 |
| 20260508140303 | 12 | 235 | 0.0 | 6.4 | 0.00 | 0.00 | 0.00 | 39 | 1021.0 |
| 20260508135737 | 12 | 236 | 0.0 | 6.4 | 0.00 | 0.00 | 0.00 | 40 | 1021.1 |
| 20260508135443 | 12 | 211 | 0.0 | 16.1 | 0.00 | 0.00 | 0.00 | 40 | 1021.1 |
| 20260508134940 | 11 | 227 | 3.2 | 16.1 | 0.00 | 0.00 | 0.00 | 40 | 1021.1 |
| 20260508134131 | 11 | 215 | 3.2 | 17.7 | 0.00 | 0.00 | 0.00 | 39 | 1021.1 |
| 20260508133602 | 11 | 241 | 1.6 | 14.5 | 0.00 | 0.00 | 0.00 | 40 | 1021.2 |
| 20260508133039 | 11 | 242 | 1.6 | 17.7 | 0.00 | 0.00 | 0.00 | 40 | 1021.2 |
| 20260508132512 | 11 | 194 | 1.6 | 17.7 | 0.00 | 0.00 | 0.00 | 39 | 1021.2 |
| 20260508132015 | 11 | 208 | 1.6 | 11.3 | 0.00 | 0.00 | 0.00 | 40 | 1021.2 |
| 20260508131516 | 11 | 205 | 1.6 | 16.1 | 0.00 | 0.00 | 0.00 | 39 | 1021.3 |
| 20260508130959 | 11 | 185 | 1.6 | 16.1 | 0.00 | 0.00 | 0.00 | 40 | 1021.2 |
| 20260508130501 | 11 | 196 | 3.2 | 16.1 | 0.00 | 0.00 | 0.00 | 40 | 1021.3 |
| 20260508130207 | 10 | 205 | 1.6 | 16.1 | 0.00 | 0.00 | 0.00 | 41 | 1021.3 |
| 20260508130052 | 10 | 205 | 1.6 | 16.1 | 0.00 | 0.00 | 0.00 | 42 | 1021.3 |
| 20260508124936 | 10 | 196 | 1.6 | 16.1 | 0.00 | 0.00 | 0.00 | 42 | 1021.3 |
| 20260508124920 | 9 | 225 | 3.2 | 19.3 | 0.00 | 0.00 | 0.00 | 42 | 1021.3 |
| 20260508123918 | 9 | 225 | 3.2 | 19.3 | 0.00 | 0.00 | 0.00 | 43 | 1021.3 |
| 20260508123423 | 9 | 205 | 1.6 | 17.7 | 0.00 | 0.00 | 0.00 | 42 | 1021.3 |
| 20260508122917 | 8 | 196 | 1.6 | 16.1 | 0.00 | 0.00 | 0.00 | 44 | 1021.3 |
| 20260508122417 | 8 | 196 | 1.6 | 16.1 | 0.00 | 0.00 | 0.00 | 43 | 1021.3 |
| 20260508122412 | 8 | 213 | 1.6 | 12.9 | 0.00 | 0.00 | 0.00 | 44 | 1021.3 |
| 20260508121410 | 8 | 216 | 0.0 | 12.9 | 0.00 | 0.00 | 0.00 | 45 | 1021.2 |
| 20260508120904 | 8 | 209 | 0.0 | 12.9 | 0.00 | 0.00 | 0.00 | 45 | 1021.2 |
| 20260508120405 | 8 | 190 | 0.0 | 8.0 | 0.00 | 0.00 | 0.00 | 45 | 1021.2 |
| 20260508115858 | 7 | 209 | 0.0 | 8.0 | 0.00 | 0.00 | 0.00 | 45 | 1021.1 |
| 20260508115629 | 7 | 225 | 1.6 | 14.5 | 0.00 | 0.00 | 0.00 | 45 | 1021.1 |
| 20260508114841 | 7 | 217 | 3.2 | 12.9 | 0.00 | 0.00 | 0.00 | 45 | 1021.2 |
| 20260508114613 | 7 | 206 | 1.6 | 14.5 | 0.00 | 0.00 | 0.00 | 45 | 1021.1 |
| 20260508113836 | 7 | 195 | 0.0 | 9.7 | 0.00 | 0.00 | 0.00 | 46 | 1021.1 |
| 20260508113339 | 7 | 212 | 0.0 | 11.3 | 0.00 | 0.00 | 0.00 | 46 | 1021.2 |
| 20260508113048 | 7 | 221 | 0.0 | 11.3 | 0.00 | 0.00 | 0.00 | 46 | 1021.2 |
| 20260508112316 | 7 | 217 | 0.0 | 6.4 | 0.00 | 0.00 | 0.00 | 46 | 1021.2 |
| 20260508111756 | 7 | 200 | 0.0 | 8.0 | 0.00 | 0.00 | 0.00 | 46 | 1021.2 |
| 20260508111500 | 7 | 203 | 1.6 | 12.9 | 0.00 | 0.00 | 0.00 | 46 | 1021.2 |
| 20260508110939 | 7 | 189 | 0.0 | 12.9 | 0.00 | 0.00 | 0.00 | 47 | 1021.2 |
| 20260508110439 | 7 | 200 | 0.0 | 6.4 | 0.00 | 0.00 | 0.00 | 47 | 1021.2 |
| 20260508105936 | 7 | 238 | 0.0 | 12.9 | 0.00 | 0.00 | 0.00 | 47 | 1021.2 |
| 20260508105434 | 7 | 209 | 0.0 | 9.7 | 0.00 | 0.00 | 0.00 | 47 | 1021.2 |
| 20260508104934 | 6 | 225 | 0.0 | 8.0 | 0.00 | 0.00 | 0.00 | 47 | 1021.2 |
| 20260508104142 | 6 | 221 | 0.0 | 8.0 | 0.00 | 0.00 | 0.00 | 48 | 1021.2 |
| 20260508103643 | 6 | 194 | 0.0 | 4.8 | 0.00 | 0.00 | 0.00 | 48 | 1021.2 |
| 20260508103416 | 6 | 209 | 0.0 | 11.3 | 0.00 | 0.00 | 0.00 | 48 | 1021.2 |
| 20260508102622 | 6 | 192 | 0.0 | 11.3 | 0.00 | 0.00 | 0.00 | 48 | 1021.3 |
| 20260508102121 | 6 | 193 | 0.0 | 6.4 | 0.00 | 0.00 | 0.00 | 48 | 1021.3 |
| 20260508101604 | 6 | 208 | 0.0 | 4.8 | 0.00 | 0.00 | 0.00 | 48 | 1021.3 |
| 20260508101104 | 6 | 196 | 0.0 | 3.2 | 0.00 | 0.00 | 0.00 | 48 | 1021.4 |
| 20260508100606 | 6 | 212 | 0.0 | 6.4 | 0.00 | 0.00 | 0.00 | 48 | 1021.3 |
| 20260508100105 | 6 | 225 | 0.0 | 6.4 | 0.00 | 0.00 | 0.00 | 48 | 1021.4 |
| 20260508095540 | 6 | 182 | 0.0 | 4.8 | 0.00 | 0.00 | 0.00 | 47 | 1021.3 |
| 20260508095035 | 7 | 211 | 0.0 | 1.6 | 0.00 | 0.00 | 0.00 | 47 | 1021.3 |
| 20260508094537 | 7 | 202 | 0.0 | 1.6 | 0.00 | 0.00 | 0.00 | 46 | 1021.4 |
| 20260508094026 | 7 | 206 | 0.0 | 6.4 | 0.00 | 0.00 | 0.00 | 46 | 1021.4 |
| 20260508093507 | 7 | 207 | 0.0 | 6.4 | 0.00 | 0.00 | 0.00 | 45 | 1021.4 |
| 20260508093003 | 7 | 209 | 0.0 | 1.6 | 0.00 | 0.00 | 0.00 | 45 | 1021.4 |
| 20260508092442 | 7 | 191 | 0.0 | 11.3 | 0.00 | 0.00 | 0.00 | 45 | 1021.4 |
| 20260508091911 | 7 | 212 | 0.0 | 11.3 | 0.00 | 0.00 | 0.00 | 44 | 1021.4 |
| 20260508091639 | 7 | 204 | 0.0 | 12.9 | 0.00 | 0.00 | 0.00 | 44 | 1021.5 |
| 20260508091137 | 7 | 211 | 0.0 | 12.9 | 0.00 | 0.00 | 0.00 | 44 | 1021.4 |
| 20260508090410 | 7 | 205 | 1.6 | 14.5 | 0.00 | 0.00 | 0.00 | 44 | 1021.4 |
| 20260508085833 | 7 | 203 | 1.6 | 14.5 | 0.00 | 0.00 | 0.00 | 44 | 1021.5 |
| 20260508085301 | 7 | 207 | 0.0 | 8.0 | 0.00 | 0.00 | 0.00 | 45 | 1021.5 |
| 20260508084731 | 7 | 204 | 0.0 | 4.8 | 0.00 | 0.00 | 0.00 | 44 | 1021.5 |
| 20260508084437 | 7 | 184 | 0.0 | 8.0 | 0.00 | 0.00 | 0.00 | 44 | 1021.5 |
| 20260508083710 | 7 | 203 | 0.0 | 8.0 | 0.00 | 0.00 | 0.00 | 44 | 1021.5 |
| 20260508083149 | 7 | 207 | 0.0 | 6.4 | 0.00 | 0.00 | 0.00 | 45 | 1021.5 |
| 20260508082646 | 7 | 190 | 0.0 | 11.3 | 0.00 | 0.00 | 0.00 | 45 | 1021.6 |
| 20260508082143 | 7 | 215 | 1.6 | 11.3 | 0.00 | 0.00 | 0.00 | 45 | 1021.6 |
| 20260508081641 | 7 | 227 | 1.6 | 16.1 | 0.00 | 0.00 | 0.00 | 45 | 1021.5 |
| 20260508081344 | 7 | 208 | 0.0 | 16.1 | 0.00 | 0.00 | 0.00 | 45 | 1021.6 |
| 20260508080611 | 7 | 215 | 0.0 | 8.0 | 0.00 | 0.00 | 0.00 | 46 | 1021.7 |
| 20260508080059 | 7 | 205 | 0.0 | 8.0 | 0.00 | 0.00 | 0.00 | 46 | 1021.7 |
| 20260508075556 | 7 | 200 | 0.0 | 3.2 | 0.00 | 0.00 | 0.00 | 46 | 1021.7 |
| 20260508075032 | 7 | 212 | 0.0 | 4.8 | 0.00 | 0.00 | 0.00 | 46 | 1021.7 |
| 20260508074506 | 7 | 196 | 0.0 | 4.8 | 0.00 | 0.00 | 0.00 | 46 | 1021.8 |
| 20260508073940 | 7 | 210 | 0.0 | 3.2 | 0.00 | 0.00 | 0.00 | 46 | 1021.8 |
| 20260508073420 | 7 | 215 | 0.0 | 3.2 | 0.00 | 0.00 | 0.00 | 46 | 1021.8 |
| 20260508072917 | 7 | 194 | 0.0 | 4.8 | 0.00 | 0.00 | 0.00 | 46 | 1021.9 |
| 20260508072416 | 7 | 197 | 0.0 | 4.8 | 0.00 | 0.00 | 0.00 | 46 | 1021.9 |
| 20260508071850 | 7 | 223 | 0.0 | 3.2 | 0.00 | 0.00 | 0.00 | 46 | 1021.9 |
| 20260508071324 | 7 | 202 | 0.0 | 1.6 | 0.00 | 0.00 | 0.00 | 46 | 1022.0 |
| 20260508070758 | 7 | 196 | 0.0 | 12.9 | 0.00 | 0.00 | 0.00 | 46 | 1022.0 |
| 20260508070241 | 7 | 230 | 0.0 | 12.9 | 0.00 | 0.00 | 0.00 | 46 | 1022.0 |
| 20260508070015 | 7 | 188 | 0.0 | 4.8 | 0.00 | 0.00 | 0.00 | 46 | 1022.1 |
| 20260508065217 | 7 | 202 | 0.0 | 4.8 | 0.00 | 0.00 | 0.00 | 46 | 1022.1 |
| 20260508064944 | 7 | 198 | 0.0 | 8.0 | 0.00 | 0.00 | 0.00 | 46 | 1022.1 |
| 20260508064210 | 7 | 207 | 0.0 | 8.0 | 0.00 | 0.00 | 0.00 | 46 | 1022.1 |
| 20260508063940 | 7 | 215 | 0.0 | 1.6 | 0.00 | 0.00 | 0.00 | 47 | 1022.2 |
| 20260508063141 | 7 | 200 | 0.0 | 3.2 | 0.00 | 0.00 | 0.00 | 47 | 1022.2 |
| 20260508062624 | 7 | 213 | 0.0 | 3.2 | 0.00 | 0.00 | 0.00 | 46 | 1022.2 |
| 20260508062328 | 7 | 211 | 0.0 | 4.8 | 0.00 | 0.00 | 0.00 | 46 | 1022.4 |
| 20260508061529 | 7 | 221 | 0.0 | 4.8 | 0.00 | 0.00 | 0.00 | 46 | 1022.5 |
| 20260508061028 | 7 | 207 | 0.0 | 0.0 | 0.00 | 0.00 | 0.00 | 46 | 1022.5 |
| 20260508060459 | 8 | 202 | 0.0 | 0.0 | 0.00 | 0.00 | 0.00 | 46 | 1022.5 |
| 20260508055957 | 8 | 202 | 0.0 | 0.0 | 0.00 | 0.00 | 0.00 | 45 | 1022.5 |
| 20260508055448 | 8 | 205 | 0.0 | 0.0 | 0.00 | 0.00 | 0.00 | 44 | 1022.5 |
| 20260508054919 | 8 | 207 | 0.0 | 0.0 | 0.00 | 0.00 | 0.00 | 43 | 1022.6 |
| 20260508054418 | 8 | 219 | 0.0 | 1.6 | 0.00 | 0.00 | 0.00 | 43 | 1022.6 |
| 20260508053849 | 8 | 202 | 0.0 | 1.6 | 0.00 | 0.00 | 0.00 | 42 | 1022.6 |
| 20260508053324 | 8 | 220 | 0.0 | 0.0 | 0.00 | 0.00 | 0.00 | 42 | 1022.6 |
| 20260508052807 | 8 | 209 | 0.0 | 1.6 | 0.00 | 0.00 | 0.00 | 42 | 1022.6 |
| 20260508052310 | 8 | 215 | 0.0 | 1.6 | 0.00 | 0.00 | 0.00 | 42 | 1022.7 |
| 20260508051741 | 8 | 207 | 0.0 | 1.6 | 0.00 | 0.00 | 0.00 | 42 | 1022.7 |
| 20260508051240 | 8 | 206 | 0.0 | 0.0 | 0.00 | 0.00 | 0.00 | 42 | 1022.7 |
| 20260508050712 | 9 | 209 | 0.0 | 0.0 | 0.00 | 0.00 | 0.00 | 42 | 1022.7 |
| 20260508050143 | 9 | 225 | 0.0 | 0.0 | 0.00 | 0.00 | 0.00 | 40 | 1022.8 |
| 20260508045912 | 9 | 202 | 0.0 | 0.0 | 0.00 | 0.00 | 0.00 | 40 | 1022.7 |
| 20260508045132 | 9 | 200 | 0.0 | 0.0 | 0.00 | 0.00 | 0.00 | 39 | 1022.8 |
| 20260508044607 | 9 | 200 | 0.0 | 0.0 | 0.00 | 0.00 | 0.00 | 40 | 1022.8 |
| 20260508044059 | 9 | 200 | 0.0 | 0.0 | 0.00 | 0.00 | 0.00 | 40 | 1022.9 |
| 20260508043557 | 9 | 212 | 0.0 | 0.0 | 0.00 | 0.00 | 0.00 | 42 | 1022.9 |
| 20260508043029 | 9 | 212 | 0.0 | 0.0 | 0.00 | 0.00 | 0.00 | 42 | 1023.0 |
| 20260508042528 | 9 | 212 | 0.0 | 0.0 | 0.00 | 0.00 | 0.00 | 42 | 1022.9 |
| 20260508042023 | 9 | 212 | 0.0 | 0.0 | 0.00 | 0.00 | 0.00 | 41 | 1023.0 |
| 20260508041526 | 10 | 224 | 0.0 | 0.0 | 0.00 | 0.00 | 0.00 | 39 | 1023.0 |
| 20260508041251 | 10 | 224 | 0.0 | 0.0 | 0.00 | 0.00 | 0.00 | 39 | 1023.0 |
| 20260508040524 | 10 | 224 | 0.0 | 0.0 | 0.00 | 0.00 | 0.00 | 38 | 1023.0 |
| 20260508035955 | 10 | 224 | 0.0 | 0.0 | 0.00 | 0.00 | 0.00 | 38 | 1023.0 |
| 20260508035454 | 10 | 224 | 0.0 | 0.0 | 0.00 | 0.00 | 0.00 | 37 | 1023.0 |
| 20260508034937 | 10 | 224 | 0.0 | 0.0 | 0.00 | 0.00 | 0.00 | 35 | 1023.1 |
| 20260508034440 | 10 | 224 | 0.0 | 0.0 | 0.00 | 0.00 | 0.00 | 35 | 1023.2 |
| 20260508033912 | 10 | 224 | 0.0 | 0.0 | 0.00 | 0.00 | 0.00 | 35 | 1023.2 |
| 20260508033410 | 11 | 224 | 0.0 | 0.0 | 0.00 | 0.00 | 0.00 | 34 | 1023.3 |
| 20260508032841 | 11 | 224 | 0.0 | 0.0 | 0.00 | 0.00 | 0.00 | 34 | 1023.3 |
| 20260508032340 | 11 | 224 | 0.0 | 0.0 | 0.00 | 0.00 | 0.00 | 34 | 1023.2 |
| 20260508031820 | 11 | 224 | 0.0 | 0.0 | 0.00 | 0.00 | 0.00 | 33 | 1023.3 |
| 20260508031508 | 11 | 224 | 0.0 | 0.0 | 0.00 | 0.00 | 0.00 | 33 | 1023.2 |
| 20260508030736 | 11 | 224 | 0.0 | 0.0 | 0.00 | 0.00 | 0.00 | 33 | 1023.3 |
| 20260508030207 | 11 | 224 | 0.0 | 0.0 | 0.00 | 0.00 | 0.00 | 32 | 1023.3 |
| 20260508025704 | 11 | 224 | 0.0 | 0.0 | 0.00 | 0.00 | 0.00 | 32 | 1023.4 |
| 20260508025203 | 11 | 224 | 0.0 | 0.0 | 0.00 | 0.00 | 0.00 | 32 | 1023.3 |
| 20260508024642 | 11 | 224 | 0.0 | 0.0 | 0.00 | 0.00 | 0.00 | 32 | 1023.4 |
| 20260508024115 | 11 | 224 | 0.0 | 0.0 | 0.00 | 0.00 | 0.00 | 32 | 1023.3 |
| 20260508023619 | 11 | 224 | 0.0 | 0.0 | 0.00 | 0.00 | 0.00 | 32 | 1023.3 |
| 20260508023320 | 12 | 224 | 0.0 | 0.0 | 0.00 | 0.00 | 0.00 | 32 | 1023.2 |
| 20260508022549 | 12 | 224 | 0.0 | 0.0 | 0.00 | 0.00 | 0.00 | 32 | 1023.2 |
| 20260508022022 | 12 | 224 | 0.0 | 0.0 | 0.00 | 0.00 | 0.00 | 32 | 1023.2 |
| 20260508021501 | 12 | 224 | 0.0 | 0.0 | 0.00 | 0.00 | 0.00 | 32 | 1023.2 |
| 20260508021004 | 12 | 224 | 0.0 | 0.0 | 0.00 | 0.00 | 0.00 | 32 | 1023.1 |
| 20260508020706 | 12 | 224 | 0.0 | 0.0 | 0.00 | 0.00 | 0.00 | 32 | 1023.0 |
| 20260508015934 | 12 | 224 | 0.0 | 0.0 | 0.00 | 0.00 | 0.00 | 32 | 1023.0 |
| 20260508015406 | 12 | 224 | 0.0 | 0.0 | 0.00 | 0.00 | 0.00 | 32 | 1022.9 |
| 20260508015135 | 12 | 224 | 0.0 | 0.0 | 0.00 | 0.00 | 0.00 | 32 | 1022.9 |
| 20260508014408 | 12 | 224 | 0.0 | 0.0 | 0.00 | 0.00 | 0.00 | 31 | 1022.8 |
| 20260508013828 | 12 | 224 | 0.0 | 0.0 | 0.00 | 0.00 | 0.00 | 31 | 1022.8 |
| 20260508013300 | 12 | 224 | 0.0 | 0.0 | 0.00 | 0.00 | 0.00 | 31 | 1022.7 |
| 20260508013017 | 12 | 224 | 0.0 | 0.0 | 0.00 | 0.00 | 0.00 | 30 | 1022.6 |
| 20260508012248 | 13 | 224 | 0.0 | 0.0 | 0.00 | 0.00 | 0.00 | 30 | 1022.7 |
| 20260508011745 | 13 | 224 | 0.0 | 0.0 | 0.00 | 0.00 | 0.00 | 30 | 1022.6 |
| 20260508011237 | 13 | 224 | 0.0 | 0.0 | 0.00 | 0.00 | 0.00 | 29 | 1022.6 |
| 20260508010947 | 13 | 225 | 0.0 | 0.0 | 0.00 | 0.00 | 0.00 | 29 | 1022.6 |
| 20260508010214 | 13 | 224 | 0.0 | 0.0 | 0.00 | 0.00 | 0.00 | 30 | 1022.6 |
| 20260508005645 | 13 | 224 | 0.0 | 0.0 | 0.00 | 0.00 | 0.00 | 29 | 1022.6 |
| 20260508005144 | 13 | 224 | 0.0 | 0.0 | 0.00 | 0.00 | 0.00 | 29 | 1022.6 |
| 20260508004617 | 13 | 224 | 0.0 | 0.0 | 0.00 | 0.00 | 0.00 | 29 | 1022.6 |
| 20260508004101 | 13 | 224 | 0.0 | 0.0 | 0.00 | 0.00 | 0.00 | 29 | 1022.6 |
| 20260508003835 | 14 | 224 | 0.0 | 0.0 | 0.00 | 0.00 | 0.00 | 28 | 1022.6 |
| 20260508003038 | 14 | 224 | 0.0 | 0.0 | 0.00 | 0.00 | 0.00 | 28 | 1022.5 |
| 20260508002512 | 14 | 224 | 0.0 | 0.0 | 0.00 | 0.00 | 0.00 | 27 | 1022.6 |
| 20260508001943 | 14 | 224 | 0.0 | 0.0 | 0.00 | 0.00 | 0.00 | 27 | 1022.6 |
| 20260508001715 | 14 | 246 | 0.0 | 0.0 | 0.00 | 0.00 | 0.00 | 28 | 1022.6 |
| 20260508000921 | 15 | 240 | 0.0 | 0.0 | 0.00 | 0.00 | 0.00 | 27 | 1022.6 |
| 20260508000339 | 15 | 240 | 0.0 | 0.0 | 0.00 | 0.00 | 0.00 | 26 | 1022.5 |
| 20260507235840 | 15 | 240 | 0.0 | 0.0 | 0.00 | 0.00 | 0.00 | 27 | 1022.5 |
| 20260507235545 | 15 | 242 | 0.0 | 0.0 | 0.00 | 0.00 | 0.00 | 27 | 1022.6 |
| 20260507234810 | 15 | 242 | 0.0 | 0.0 | 0.00 | 0.00 | 0.00 | 26 | 1022.7 |
| 20260507234308 | 15 | 242 | 0.0 | 0.0 | 0.00 | 0.00 | 0.00 | 27 | 1022.7 |
| 20260507233742 | 15 | 243 | 0.0 | 0.0 | 0.00 | 0.00 | 0.00 | 26 | 1022.8 |
| 20260507233203 | 15 | 242 | 0.0 | 0.0 | 0.00 | 0.00 | 0.00 | 25 | 1022.8 |
| 20260507232638 | 15 | 257 | 0.0 | 0.0 | 0.00 | 0.00 | 0.00 | 26 | 1022.8 |
| 20260507232346 | 16 | 238 | 0.0 | 0.0 | 0.00 | 0.00 | 0.00 | 24 | 1022.9 |
| 20260507231551 | 16 | 188 | 0.0 | 0.0 | 0.00 | 0.00 | 0.00 | 23 | 1022.9 |
| 20260507231258 | 16 | 251 | 0.0 | 0.0 | 0.00 | 0.00 | 0.00 | 23 | 1022.9 |
| 20260507230528 | 16 | 243 | 0.0 | 0.0 | 0.00 | 0.00 | 0.00 | 23 | 1022.9 |
| 20260507230013 | 17 | 304 | 0.0 | 0.0 | 0.00 | 0.00 | 0.00 | 22 | 1023.0 |
| 20260507225515 | 17 | 346 | 0.0 | 0.0 | 0.00 | 0.00 | 0.00 | 22 | 1023.0 |
| 20260507224950 | 17 | 161 | 0.0 | 0.0 | 0.00 | 0.00 | 0.00 | 23 | 1023.0 |
| 20260507224436 | 17 | 227 | 0.0 | 0.0 | 0.00 | 0.00 | 0.00 | 22 | 1023.0 |
| 20260507223934 | 17 | 243 | 0.0 | 0.0 | 0.00 | 0.00 | 0.00 | 22 | 1023.2 |
| 20260507223704 | 17 | 327 | 0.0 | 3.2 | 0.00 | 0.00 | 0.00 | 22 | 1023.2 |
| 20260507222931 | 17 | 257 | 0.0 | 3.2 | 0.00 | 0.00 | 0.00 | 22 | 1023.2 |
| 20260507222434 | 17 | 214 | 0.0 | 4.8 | 0.00 | 0.00 | 0.00 | 21 | 1023.1 |
| 20260507221909 | 17 | 194 | 0.0 | 4.8 | 0.00 | 0.00 | 0.00 | 21 | 1023.1 |
| 20260507221356 | 17 | 254 | 0.0 | 1.6 | 0.00 | 0.00 | 0.00 | 21 | 1023.2 |
| 20260507220856 | 17 | 271 | 0.0 | 9.7 | 0.00 | 0.00 | 0.00 | 22 | 1023.2 |
| 20260507220345 | 17 | 284 | 0.0 | 9.7 | 0.00 | 0.00 | 0.00 | 22 | 1023.1 |
| 20260507215842 | 17 | 336 | 0.0 | 6.4 | 0.00 | 0.00 | 0.00 | 22 | 1023.2 |
| 20260507215332 | 17 | 307 | 0.0 | 6.4 | 0.00 | 0.00 | 0.00 | 21 | 1023.3 |
| 20260507214833 | 17 | 245 | 0.0 | 1.6 | 0.00 | 0.00 | 0.00 | 21 | 1023.3 |
| 20260507214333 | 17 | 187 | 0.0 | 1.6 | 0.00 | 0.00 | 0.00 | 22 | 1023.3 |
| 20260507213831 | 17 | 350 | 0.0 | 6.4 | 0.00 | 0.00 | 0.00 | 22 | 1023.4 |
| 20260507213331 | 17 | 243 | 0.0 | 6.4 | 0.00 | 0.00 | 0.00 | 22 | 1023.4 |
| 20260507212827 | 17 | 327 | 0.0 | 1.6 | 0.00 | 0.00 | 0.00 | 22 | 1023.4 |
| 20260507212324 | 16 | 268 | 0.0 | 1.6 | 0.00 | 0.00 | 0.00 | 22 | 1023.4 |
| 20260507211824 | 17 | 22 | 0.0 | 1.6 | 0.00 | 0.00 | 0.00 | 24 | 1023.5 |
| 20260507211310 | 16 | 252 | 0.0 | 1.6 | 0.00 | 0.00 | 0.00 | 23 | 1023.5 |
| 20260507210812 | 17 | 278 | 0.0 | 0.0 | 0.00 | 0.00 | 0.00 | 22 | 1023.6 |
| 20260507210747 | 17 | 255 | 0.0 | 1.6 | 0.00 | 0.00 | 0.00 | 21 | 1023.6 |
| 20260507205722 | 17 | 263 | 0.0 | 3.2 | 0.00 | 0.00 | 0.00 | 21 | 1023.7 |
| 20260507205452 | 17 | 263 | 0.0 | 3.2 | 0.00 | 0.00 | 0.00 | 21 | 1023.6 |
| 20260507204659 | 17 | 194 | 0.0 | 0.0 | 0.00 | 0.00 | 0.00 | 25 | 1023.8 |
| 20260507204139 | 16 | 246 | 0.0 | 1.6 | 0.00 | 0.00 | 0.00 | 24 | 1023.8 |
| 20260507203619 | 17 | 5 | 0.0 | 1.6 | 0.00 | 0.00 | 0.00 | 23 | 1024.0 |
| 20260507203118 | 17 | 230 | 0.0 | 1.6 | 0.00 | 0.00 | 0.00 | 21 | 1023.9 |
| 20260507202613 | 16 | 248 | 0.0 | 1.6 | 0.00 | 0.00 | 0.00 | 22 | 1024.0 |
| 20260507202319 | 16 | 271 | 0.0 | 1.6 | 0.00 | 0.00 | 0.00 | 25 | 1024.0 |
| 20260507201535 | 15 | 350 | 0.0 | 3.2 | 0.00 | 0.00 | 0.00 | 25 | 1024.0 |
| 20260507201013 | 15 | 167 | 0.0 | 4.8 | 0.00 | 0.00 | 0.00 | 22 | 1024.1 |
| 20260507200509 | 16 | 241 | 0.0 | 8.0 | 0.00 | 0.00 | 0.00 | 21 | 1024.2 |
| 20260507200009 | 16 | 236 | 0.0 | 8.0 | 0.00 | 0.00 | 0.00 | 22 | 1024.3 |
| 20260507195458 | 16 | 241 | 0.0 | 0.0 | 0.00 | 0.00 | 0.00 | 23 | 1024.2 |
| 20260507194957 | 16 | 338 | 0.0 | 0.0 | 0.00 | 0.00 | 0.00 | 25 | 1024.3 |
| 20260507194454 | 16 | 355 | 0.0 | 0.0 | 0.00 | 0.00 | 0.00 | 23 | 1024.4 |
| 20260507193932 | 16 | 266 | 0.0 | 0.0 | 0.00 | 0.00 | 0.00 | 22 | 1024.5 |
| 20260507193359 | 17 | 48 | 0.0 | 0.0 | 0.00 | 0.00 | 0.00 | 22 | 1024.5 |
| 20260507192831 | 16 | 208 | 0.0 | 0.0 | 0.00 | 0.00 | 0.00 | 24 | 1024.4 |
| 20260507192323 | 16 | 211 | 0.0 | 0.0 | 0.00 | 0.00 | 0.00 | 22 | 1024.5 |
| 20260507191757 | 16 | 72 | 0.0 | 0.0 | 0.00 | 0.00 | 0.00 | 23 | 1024.5 |
| 20260507191505 | 16 | 250 | 0.0 | 4.8 | 0.00 | 0.00 | 0.00 | 26 | 1024.6 |
| 20260507190935 | 16 | 234 | 0.0 | 4.8 | 0.00 | 0.00 | 0.00 | 22 | 1024.8 |
| 20260507190139 | 17 | 215 | 0.0 | 1.6 | 0.00 | 0.00 | 0.00 | 23 | 1024.8 |
| 20260507185618 | 16 | 200 | 0.0 | 1.6 | 0.00 | 0.00 | 0.00 | 26 | 1024.8 |
| 20260507185035 | 16 | 198 | 0.0 | 0.0 | 0.00 | 0.00 | 0.00 | 26 | 1024.8 |
| 20260507184510 | 15 | 279 | 0.0 | 0.0 | 0.00 | 0.00 | 0.00 | 26 | 1024.8 |
| 20260507183940 | 15 | 279 | 0.0 | 1.6 | 0.00 | 0.00 | 0.00 | 25 | 1024.9 |
| 20260507183711 | 15 | 274 | 0.0 | 1.6 | 0.00 | 0.00 | 0.00 | 25 | 1025.0 |
| 20260507182919 | 15 | 261 | 0.0 | 0.0 | 0.00 | 0.00 | 0.00 | 24 | 1025.0 |
| 20260507182415 | 15 | 276 | 0.0 | 0.0 | 0.00 | 0.00 | 0.00 | 26 | 1025.0 |
| 20260507181920 | 15 | 215 | 0.0 | 0.0 | 0.00 | 0.00 | 0.00 | 29 | 1024.9 |
| 20260507181624 | 15 | 308 | 0.0 | 0.0 | 0.00 | 0.00 | 0.00 | 26 | 1025.1 |
| 20260507180832 | 15 | 298 | 0.0 | 0.0 | 0.00 | 0.00 | 0.00 | 26 | 1025.1 |
| 20260507180254 | 15 | 24 | 0.0 | 0.0 | 0.00 | 0.00 | 0.00 | 28 | 1025.0 |
| 20260507175753 | 15 | 273 | 0.0 | 1.6 | 0.00 | 0.00 | 0.00 | 27 | 1025.1 |
| 20260507175240 | 15 | 304 | 0.0 | 1.6 | 0.00 | 0.00 | 0.00 | 25 | 1025.1 |
| 20260507174739 | 15 | 243 | 0.0 | 1.6 | 0.00 | 0.00 | 0.00 | 28 | 1025.1 |
| 20260507174210 | 15 | 355 | 0.0 | 0.0 | 0.00 | 0.00 | 0.00 | 29 | 1025.1 |
| 20260507173709 | 15 | 257 | 0.0 | 1.6 | 0.00 | 0.00 | 0.00 | 28 | 1025.3 |
| 20260507173143 | 14 | 278 | 0.0 | 1.6 | 0.00 | 0.00 | 0.00 | 26 | 1025.2 |
| 20260507172618 | 14 | 196 | 0.0 | 8.0 | 0.00 | 0.00 | 0.00 | 27 | 1025.3 |
| 20260507172112 | 14 | 216 | 0.0 | 8.0 | 0.00 | 0.00 | 0.00 | 28 | 1025.3 |
| 20260507171611 | 14 | 272 | 0.0 | 0.0 | 0.00 | 0.00 | 0.00 | 27 | 1025.5 |
| 20260507171111 | 14 | 351 | 0.0 | 1.6 | 0.00 | 0.00 | 0.00 | 27 | 1025.5 |
| 20260507170615 | 13 | 303 | 0.0 | 1.6 | 0.00 | 0.00 | 0.00 | 28 | 1025.6 |
| 20260507170046 | 13 | 243 | 0.0 | 3.2 | 0.00 | 0.00 | 0.00 | 27 | 1025.6 |
| 20260507165547 | 13 | 242 | 0.0 | 3.2 | 0.00 | 0.00 | 0.00 | 25 | 1025.6 |
| 20260507165317 | 13 | 277 | 0.0 | 3.2 | 0.00 | 0.00 | 0.00 | 28 | 1025.6 |
| 20260507164547 | 12 | 323 | 0.0 | 1.6 | 0.00 | 0.00 | 0.00 | 29 | 1025.7 |
| 20260507164021 | 12 | 348 | 0.0 | 1.6 | 0.00 | 0.00 | 0.00 | 31 | 1025.8 |
| 20260507163455 | 12 | 226 | 0.0 | 1.6 | 0.00 | 0.00 | 0.00 | 31 | 1025.7 |
| 20260507162928 | 12 | 334 | 0.0 | 0.0 | 0.00 | 0.00 | 0.00 | 32 | 1025.8 |
| 20260507162427 | 12 | 257 | 0.0 | 0.0 | 0.00 | 0.00 | 0.00 | 33 | 1025.8 |
| 20260507161910 | 12 | 288 | 0.0 | 0.0 | 0.00 | 0.00 | 0.00 | 33 | 1025.8 |
| 20260507161412 | 12 | 348 | 0.0 | 0.0 | 0.00 | 0.00 | 0.00 | 33 | 1025.9 |
| 20260507160844 | 12 | 310 | 0.0 | 0.0 | 0.00 | 0.00 | 0.00 | 33 | 1025.9 |
| 20260507160613 | 12 | 309 | 0.0 | 0.0 | 0.00 | 0.00 | 0.00 | 33 | 1026.0 |
| 20260507155814 | 11 | 309 | 0.0 | 0.0 | 0.00 | 0.00 | 0.00 | 35 | 1026.0 |
| 20260507155313 | 11 | 340 | 0.0 | 0.0 | 0.00 | 0.00 | 0.00 | 35 | 1026.0 |
| 20260507154756 | 12 | 261 | 0.0 | 0.0 | 0.00 | 0.00 | 0.00 | 32 | 1025.9 |
| 20260507154256 | 11 | 224 | 0.0 | 0.0 | 0.00 | 0.00 | 0.00 | 33 | 1025.9 |
| 20260507153757 | 10 | 224 | 0.0 | 0.0 | 0.00 | 0.00 | 0.00 | 36 | 1026.0 |